STARLINK-11536, 62563

Orbit data source: Space-Track

STARLINK-11536, 62563 is a payload satellite owned by SpaceX/Seattle (US) in LEO that was launched on Fri, 10 Jan 2025 UTC via an FALCON 9 launch vehicle from the Air Force Eastern Test Range (AFETR). Payload-class satellites include a variety of spacecraft equipped with specific instruments for various scientific and technological missions. These include communications satellites like Starlink; space stations such as the ISS; scientific satellites like the Hubble; Earth observation satellites from companies like Planet Labs, Umbra, and HawkEye 360; GPS; miniature CubeSats for education and research; and military/defense satellites.

Loading next visibility...
Identifier
62563, 2025-006K
Orbit
LEO
Country
Flag of USUS
Related business
Manufacturer
SpaceX/Seattle
Mission
Operational Commercial Communications
Bus & Motor
STARLINK V2MD, Unknown motor
Mass
960 kg wet, ~910 kg dry
Launch date (UTC)
2025-01-10 (1 year ago)
Launch vehicle
FALCON 9
Launch site
Air Force Eastern Test Range (AFETR)
Object type
Payload
Rocket body
Debris
Shape & HBR
Box + 2 Pan, 18.1 m
Radar Cross Section
36.964 m², Large (>1 m²)

Expand to show TLE details & history
Last TLE update: 1 day ago

TLE from 1 day ago
0 STARLINK-11536
1 62563U 25006K   26170.54809671  .00152974  00000-0  11712-2 0  9993
2 62563  42.9997 245.7848 0002058 263.4803  96.5830 15.70893921 82627
Epoch: 2026-06-19T13:09Z
TLE epoch observation values (Epoch: 2026-06-19T13:09:15.555Z)
Latitude
-0.00006°
Longitude
140.69443°
Altitude
356.271 km
Speed
7.697 km/s
True Right ascension
16h 23m 08s
True Declination
0° 00' 00"
Sunlit
Object was in full shadow at epoch
Visualization orbit readout
Latitude
Unknown
Longitude
Unknown
Altitude
Unknown
Speed
Unknown
Apparent Right ascension
Unknown
Apparent Declination
Unknown
Sunlit
N/A
Visualization observer readout
Local Sidereal Time
10:19:37
Azimuth
Unknown
Elevation
Unknown
Doppler factor
Unknown
Orbital elements
Apogee altitude
359.709 km
Perigee altitude
356.936 km
Semi-major axis
6,736.46 km
Eccentricity
0.00021
Inclination
42.9997°
RAAN
245.7848°
Arg. of periapsis
263.4803°
True anomaly
96.60643°
Mean anomaly
96.583°
Eccentric anomaly
96.59471°
Mean motion
3.92551 °/min
Orbital period
91.71 mins
BSTAR
0.0011712
Loading maneuver chart data...
Computing Atmospheric mass density...
Loading historical data...
Loading historical data...
Loading historical data...
Loading historical data...
Loading historical data...
Loading historical data...
Loading historical data...

Documentation

Showing up to 5 results
|